EW7614 Weather Reports


Display with metric or nautical units.
time (UTC)temp
F
wind
direction
speed
MPH
gust
MPH
rain 1hr
in
rain 24hr
in
rain mn
in
humidity
%
barometer
mb
20260505223136 47 178 0.0 0.0 0.00 0.00 0.00 75 1006.0
20260505221600 48 67 0.0 2.0 0.00 0.00 0.00 74 1005.8
20260505220002 47 247 0.0 1.0 0.00 0.00 0.00 74 1005.7
20260505214558 48 198 0.0 1.0 0.00 0.00 0.00 72 1005.7
20260505213009 48 233 0.0 0.0 0.00 0.00 0.00 74 1005.8
20260505211559 49 234 0.0 1.0 0.00 0.00 0.00 71 1005.7
20260505210014 50 32 0.0 2.0 0.00 0.00 0.00 70 1005.5
20260505204612 50 205 0.0 0.0 0.00 0.00 0.00 68 1005.5
20260505203022 51 313 0.0 0.0 0.00 0.00 0.00 66 1005.2
20260505201606 52 344 0.0 1.0 0.00 0.00 0.00 64 1005.0
20260505200018 55 290 3.0 6.0 0.00 0.00 0.00 58 1004.8
20260505194608 58 192 1.0 13.0 0.00 0.00 0.00 52 1004.6
20260505193031 59 77 1.0 5.0 0.00 0.00 0.00 51 1004.3
20260505191611 59 16 4.0 13.0 0.00 0.00 0.00 50 1004.3
20260505190020 59 119 0.0 8.0 0.00 0.00 0.00 50 1004.0
20260505184608 61 80 1.0 8.0 0.00 0.00 0.00 47 1003.9
20260505183021 61 59 4.0 14.0 0.00 0.00 0.00 47 1003.7
20260505181617 61 86 2.0 16.0 0.00 0.00 0.00 47 1003.5
20260505180019 62 274 2.0 15.0 0.00 0.00 0.00 46 1003.4
20260505174610 62 52 4.0 15.0 0.00 0.00 0.00 46 1003.3
20260505173029 63 349 5.0 14.0 0.00 0.00 0.00 44 1003.3
20260505171612 63 70 1.0 14.0 0.00 0.00 0.00 46 1003.3
20260505170032 64 333 4.0 13.0 0.00 0.00 0.00 44 1003.2
20260505164618 64 58 3.0 17.0 0.00 0.00 0.00 45 1003.2
20260505163036 64 82 7.0 20.0 0.00 0.00 0.00 45 1003.2
20260505161506 64 340 5.0 16.0 0.00 0.00 0.00 45 1003.5
20260505153055 65 172 3.0 15.0 0.00 0.00 0.00 44 1003.4
20260505151634 65 101 4.0 18.0 0.00 0.00 0.00 43 1003.4
20260505124606 68 331 6.0 29.0 0.00 0.00 0.00 39 1003.1
20260505123125 68 63 7.0 21.0 0.00 0.00 0.00 39 1003.1
20260505121531 66 96 5.0 16.0 0.00 0.00 0.00 40 1003.0
20260505120116 66 83 1.0 15.0 0.00 0.00 0.00 42 1003.3
20260505114517 66 227 3.0 14.0 0.00 0.00 0.00 40 1003.4
20260505113114 67 88 2.0 20.0 0.00 0.00 0.00 40 1003.3
20260505111502 67 71 6.0 22.0 0.00 0.00 0.00 38 1003.0
20260505101518 70 194 2.0 14.0 0.00 0.00 0.00 35 1003.9
20260505100115 70 203 1.0 10.0 0.00 0.00 0.00 35 1003.9
20260505094531 70 170 5.0 14.0 0.00 0.00 0.00 33 1004.1
20260505093121 71 64 0.0 4.0 0.00 0.00 0.00 37 1004.1
20260505091540 70 89 1.0 9.0 0.00 0.00 0.00 38 1004.2
20260505090124 69 333 0.0 3.0 0.00 0.00 0.00 41 1004.3
20260505084546 67 63 0.0 3.0 0.00 0.00 0.00 45 1004.6
20260505083128 65 299 0.0 4.0 0.00 0.00 0.00 47 1004.7
20260505081551 65 103 0.0 4.0 0.00 0.00 0.00 52 1005.0
20260505080000 63 240 0.0 3.0 0.00 0.00 0.00 54 1005.4
20260505074541 61 300 0.0 1.0 0.00 0.00 0.00 55 1005.6
20260505073119 58 220 0.0 2.0 0.00 0.00 0.00 58 1005.8
20260505071534 57 308 0.0 2.0 0.00 0.00 0.00 59 1006.0
20260505070113 56 135 0.0 1.0 0.00 0.00 0.00 63 1006.1
20260505064520 54 271 0.0 2.0 0.00 0.00 0.00 69 1006.3
20260505063103 54 319 0.0 2.0 0.00 0.00 0.00 64 1006.5
20260505061502 51 55 0.0 2.0 0.00 0.00 0.00 74 1006.5
20260505060047 49 50 0.0 1.0 0.00 0.00 0.00 78 1006.5
20260505054501 47 320 0.0 1.0 0.00 0.00 0.00 77 1006.7
20260505053111 46 306 0.0 0.0 0.00 0.00 0.00 78 1006.8
20260505051634 45 306 0.0 0.0 0.00 0.00 0.00 80 1006.8
20260505041631 39 192 0.0 2.0 0.00 0.00 0.00 86 1007.2
20260505040045 43 76 0.0 1.0 0.00 0.00 0.00 82 1007.1
20260505034502 41 214 0.0 0.0 0.00 0.00 0.00 83 1007.2
20260505033057 42 209 0.0 0.0 0.00 0.00 0.00 84 1007.1
20260505031517 42 209 0.0 0.0 0.00 0.00 0.00 84 1007.2
20260505030108 43 209 0.0 1.0 0.00 0.00 0.00 81 1007.3
20260505024526 43 150 0.0 0.0 0.00 0.00 0.00 83 1007.3
20260505023115 42 123 0.0 0.0 0.00 0.00 0.00 83 1007.3
20260505021536 45 120 0.0 1.0 0.00 0.00 0.00 77 1007.5
20260505020128 43 217 0.0 2.0 0.00 0.00 0.00 82 1007.7
20260505014546 44 207 0.0 1.0 0.00 0.00 0.00 81 1007.7
20260505013006 46 317 0.0 2.0 0.00 0.00 0.00 77 1007.7
20260505011612 45 222 0.0 0.0 0.00 0.00 0.00 80 1007.7
20260505010019 48 36 0.0 0.0 0.00 0.00 0.00 72 1007.7
20260505004618 46 209 0.0 1.0 0.00 0.00 0.00 79 1007.9
20260505003039 49 196 0.0 0.0 0.00 0.00 0.00 70 1007.9
20260505001509 47 196 0.0 0.0 0.00 0.00 0.00 77 1008.0
20260505000111 49 294 0.0 0.0 0.00 0.00 0.00 71 1008.0
20260504234528 50 294 0.0 0.0 0.00 0.00 0.00 72 1008.1
20260504233115 52 355 0.0 1.0 0.00 0.00 0.00 66 1008.1
20260504231534 52 76 0.0 3.0 0.00 0.00 0.00 66 1008.3
20260504230120 52 124 0.0 1.0 0.00 0.00 0.00 64 1008.3
20260504224533 52 290 0.0 2.0 0.00 0.00 0.00 66 1008.3